When you browse on this site, cookies collect data to enhance your experience and personalize the content and advertising you see.
Visit our Privacy Policy to learn more. By continuing to use the site, you agree to this use of cookies and data.
  • In Schweiz
  • Länderverzeichnis
  • Für 7 Tage
  • Wassertemperatur
  • Satellitenkarten
  • Wetterkarte
  • Widgets
  • user-avatar
    Anmelden

    Stündliche Wetter Kinshasa

    Heute, 16 Februar, Samstag

    Zeit Temperatur Niederschläge Wind Luftdruck Luftfeuchtigkeit
    00:00 +26°C° 0 mm 1 m/S 708 mmHg 19%
    01:00 +26°C° 0 mm 2 m/S 708 mmHg 18%
    02:00 +25°C° 0 mm 1 m/S 708 mmHg 18%
    03:00 +24°C° 0 mm 1 m/S 708 mmHg 18%
    04:00 +24°C° 0 mm 1 m/S 708 mmHg 18%
    05:00 +24°C° 0 mm 1 m/S 708 mmHg 19%
    06:00 +24°C° 0 mm 1 m/S 708 mmHg 20%
    07:00 +24°C° 0 mm 1 m/S 709 mmHg 20%
    08:00 +29°C° 0 mm 1 m/S 709 mmHg 16%
    09:00 +33°C° 0 mm 1 m/S 710 mmHg 13%
    10:00 +35°C° 0 mm 0 m/S 710 mmHg 10%
    11:00 +39°C° 0 mm 1 m/S 710 mmHg 10%
    12:00 +41°C° 0 mm 1 m/S 709 mmHg 9%
    13:00 +43°C° 0 mm 1 m/S 709 mmHg 9%
    14:00 +42°C° 0 mm 1 m/S 708 mmHg 9%
    15:00 +41°C° 0 mm 1 m/S 707 mmHg 10%
    16:00 +40°C° 0 mm 2 m/S 706 mmHg 10%
    17:00 +38°C° 0 mm 2 m/S 706 mmHg 12%
    18:00 +35°C° 0 mm 2 m/S 706 mmHg 15%
    19:00 +32°C° 0 mm 2 m/S 706 mmHg 17%
    20:00 +31°C° 0 mm 1 m/S 707 mmHg 18%
    21:00 +29°C° 0 mm 1 m/S 707 mmHg 20%
    22:00 +28°C° 0 mm 1 m/S 708 mmHg 21%
    23:00 +26°C° 0 mm 0 m/S 708 mmHg 22%

    Morgen, 17 Februar, Sonntag

    Zeit Temperatur Niederschläge Wind Luftdruck Luftfeuchtigkeit
    00:00 +25°C° 0 mm 0 m/S 708 mmHg 22%
    01:00 +25°C° 0 mm 0 m/S 707 mmHg 23%
    02:00 +24°C° 0 mm 0 m/S 707 mmHg 24%
    03:00 +24°C° 0 mm 0 m/S 707 mmHg 24%
    04:00 +23°C° 0 mm 0 m/S 707 mmHg 24%
    05:00 +23°C° 0 mm 0 m/S 707 mmHg 28%
    06:00 +22°C° 0 mm 0 m/S 708 mmHg 31%
    07:00 +22°C° 0 mm 0 m/S 708 mmHg 34%
    08:00 +26°C° 0 mm 0 m/S 709 mmHg 30%
    09:00 +30°C° 0 mm 0 m/S 709 mmHg 26%
    10:00 +36°C° 0 mm 1 m/S 710 mmHg 22%
    11:00 +39°C° 0 mm 1 m/S 710 mmHg 19%
    12:00 +41°C° 0 mm 1 m/S 709 mmHg 16%
    13:00 +42°C° 0 mm 1 m/S 708 mmHg 12%
    14:00 +42°C° 0 mm 1 m/S 707 mmHg 12%
    15:00 +41°C° 0 mm 1 m/S 706 mmHg 12%
    16:00 +40°C° 0 mm 2 m/S 706 mmHg 12%
    17:00 +37°C° 0 mm 1 m/S 706 mmHg 14%
    18:00 +34°C° 0 mm 1 m/S 706 mmHg 16%
    19:00 +32°C° 0 mm 1 m/S 706 mmHg 18%
    20:00 +31°C° 0 mm 1 m/S 706 mmHg 20%
    21:00 +30°C° 0 mm 1 m/S 707 mmHg 21%
    22:00 +29°C° 0 mm 1 m/S 707 mmHg 23%
    23:00 +28°C° 0 mm 1 m/S 707 mmHg 28%

    übermorgen, 18 Februar, Montag

    Zeit Temperatur Niederschläge Wind Luftdruck Luftfeuchtigkeit
    00:00 +27°C° 0 mm 1 m/S 707 mmHg 33%
    01:00 +27°C° 0 mm 1 m/S 707 mmHg 39%
    02:00 +26°C° 0 mm 1 m/S 707 mmHg 44%
    03:00 +26°C° 0 mm 1 m/S 706 mmHg 48%
    04:00 +26°C° 0 mm 1 m/S 706 mmHg 53%
    05:00 +26°C° 0 mm 1 m/S 707 mmHg 55%
    06:00 +26°C° 0 mm 1 m/S 707 mmHg 57%
    07:00 +26°C° 0 mm 2 m/S 708 mmHg 59%
    08:00 +29°C° 0 mm 2 m/S 708 mmHg 52%
    09:00 +31°C° 0 mm 2 m/S 709 mmHg 45%
    10:00 +35°C° 0 mm 2 m/S 709 mmHg 37%
    11:00 +38°C° 0 mm 2 m/S 708 mmHg 30%
    12:00 +40°C° 0 mm 2 m/S 708 mmHg 23%
    13:00 +42°C° 0 mm 1 m/S 707 mmHg 16%
    14:00 +42°C° 0 mm 1 m/S 706 mmHg 15%
    15:00 +42°C° 0 mm 2 m/S 705 mmHg 14%
    16:00 +41°C° 0 mm 2 m/S 704 mmHg 12%
    17:00 +39°C° 0 mm 1 m/S 704 mmHg 14%
    18:00 +35°C° 0 mm 1 m/S 704 mmHg 16%
    19:00 +33°C° 0 mm 1 m/S 704 mmHg 19%
    20:00 +31°C° 0 mm 1 m/S 705 mmHg 22%
    21:00 +30°C° 0 mm 1 m/S 705 mmHg 25%
    22:00 +29°C° 0 mm 1 m/S 706 mmHg 28%
    23:00 +28°C° 0 mm 1 m/S 705 mmHg 32%

    19 Februar, Dienstag

    Zeit Temperatur Niederschläge Wind Luftdruck Luftfeuchtigkeit
    00:00 +28°C° 0 mm 1 m/S 705 mmHg 36%
    01:00 +27°C° 0 mm 1 m/S 705 mmHg 40%
    02:00 +27°C° 0 mm 1 m/S 705 mmHg 45%
    03:00 +26°C° 0 mm 1 m/S 705 mmHg 49%
    04:00 +26°C° 0 mm 1 m/S 705 mmHg 53%
    05:00 +26°C° 0 mm 1 m/S 706 mmHg 55%
    06:00 +26°C° 0 mm 1 m/S 706 mmHg 56%
    07:00 +26°C° 0 mm 1 m/S 707 mmHg 57%
    08:00 +28°C° 0.1 mm 1 m/S 708 mmHg 52%
    09:00 +31°C° 0.1 mm 2 m/S 708 mmHg 46%
    10:00 +35°C° 0.1 mm 2 m/S 709 mmHg 40%
    11:00 +37°C° 0 mm 2 m/S 708 mmHg 34%
    12:00 +40°C° 0 mm 1 m/S 708 mmHg 27%
    13:00 +42°C° 0 mm 1 m/S 707 mmHg 21%
    14:00 +41°C° 0 mm 1 m/S 706 mmHg 23%
    15:00 +39°C° 0 mm 2 m/S 705 mmHg 25%
    16:00 +38°C° 0 mm 2 m/S 704 mmHg 27%
    17:00 +36°C° 0 mm 2 m/S 704 mmHg 32%
    18:00 +34°C° 0 mm 2 m/S 704 mmHg 37%
    19:00 +32°C° 0 mm 2 m/S 704 mmHg 42%
    20:00 +30°C° 0 mm 2 m/S 705 mmHg 46%
    21:00 +29°C° 0 mm 1 m/S 705 mmHg 50%
    22:00 +28°C° 0 mm 1 m/S 706 mmHg 55%
    23:00 +28°C° 0 mm 1 m/S 706 mmHg 56%

    20 Februar, Mittwoch

    Zeit Temperatur Niederschläge Wind Luftdruck Luftfeuchtigkeit
    00:00 +27°C° 0 mm 1 m/S 705 mmHg 58%
    01:00 +27°C° 0 mm 1 m/S 705 mmHg 60%
    02:00 +26°C° 0 mm 1 m/S 705 mmHg 62%
    03:00 +25°C° 0 mm 1 m/S 705 mmHg 64%
    04:00 +25°C° 0 mm 1 m/S 705 mmHg 66%
    05:00 +25°C° 0 mm 1 m/S 706 mmHg 66%
    06:00 +25°C° 0 mm 2 m/S 706 mmHg 66%
    07:00 +25°C° 0 mm 2 m/S 707 mmHg 66%
    08:00 +28°C° 0 mm 2 m/S 708 mmHg 57%
    09:00 +31°C° 0 mm 2 m/S 708 mmHg 48%
    10:00 +35°C° 0 mm 2 m/S 709 mmHg 39%
    11:00 +37°C° 0 mm 2 m/S 708 mmHg 32%
    12:00 +40°C° 0 mm 2 m/S 707 mmHg 25%
    13:00 +42°C° 0 mm 2 m/S 707 mmHg 18%
    14:00 +41°C° 0 mm 1 m/S 706 mmHg 18%
    15:00 +40°C° 0 mm 1 m/S 705 mmHg 19%
    16:00 +39°C° 0 mm 1 m/S 704 mmHg 19%
    17:00 +37°C° 0 mm 2 m/S 704 mmHg 22%
    18:00 +35°C° 0 mm 2 m/S 705 mmHg 26%
    19:00 +32°C° 0 mm 2 m/S 705 mmHg 29%
    20:00 +31°C° 0 mm 1 m/S 705 mmHg 34%
    21:00 +30°C° 0 mm 1 m/S 706 mmHg 38%
    22:00 +26°C° 0 mm 0 m/S 706 mmHg 43%
    23:00 +26°C° 0 mm 0 m/S 706 mmHg 45%

    21 Februar, Donnerstag

    Zeit Temperatur Niederschläge Wind Luftdruck Luftfeuchtigkeit
    00:00 +25°C° 0 mm 0 m/S 706 mmHg 47%
    01:00 +25°C° 0 mm 0 m/S 706 mmHg 49%
    02:00 +26°C° 0 mm 1 m/S 706 mmHg 52%
    03:00 +26°C° 0 mm 1 m/S 706 mmHg 54%
    04:00 +25°C° 0 mm 1 m/S 706 mmHg 57%
    05:00 +26°C° 0 mm 1 m/S 706 mmHg 57%
    06:00 +26°C° 0 mm 2 m/S 707 mmHg 58%
    07:00 +26°C° 0 mm 2 m/S 707 mmHg 59%
    08:00 +29°C° 0 mm 2 m/S 708 mmHg 52%
    09:00 +32°C° 0 mm 2 m/S 708 mmHg 45%
    10:00 +36°C° 0 mm 2 m/S 709 mmHg 38%
    11:00 +37°C° 0 mm 1 m/S 708 mmHg 34%
    12:00 +39°C° 0 mm 1 m/S 707 mmHg 30%
    13:00 +40°C° 0 mm 1 m/S 706 mmHg 26%
    14:00 +40°C° 0 mm 1 m/S 706 mmHg 27%
    15:00 +39°C° 0 mm 1 m/S 705 mmHg 27%
    16:00 +37°C° 0 mm 1 m/S 704 mmHg 28%
    17:00 +35°C° 0 mm 1 m/S 705 mmHg 31%
    18:00 +34°C° 0 mm 1 m/S 705 mmHg 35%
    19:00 +32°C° 0 mm 1 m/S 705 mmHg 38%
    20:00 +31°C° 0 mm 1 m/S 705 mmHg 43%
    21:00 +30°C° 0 mm 1 m/S 706 mmHg 47%
    22:00 +29°C° 0 mm 1 m/S 706 mmHg 52%
    23:00 +29°C° 0 mm 2 m/S 706 mmHg 52%
    Mehr zeigen